| time (UTC) | temp F | wind direction | speed MPH | gust MPH | rain 1hr in | rain 24hr in | rain mn in | humidity % | barometer mb |
| 20260506231833 | 81 | 315 | 4.0 | 4.0 | 0.00 | 0.00 | 0.00 | 70 | 1010.5 |
| 20260506230833 | 83 | 314 | 0.0 | 3.0 | 0.00 | 0.00 | 0.00 | 70 | 1010.4 |
| 20260506225833 | 85 | 311 | 1.0 | 8.0 | 0.00 | 0.00 | 0.00 | 69 | 1010.3 |
| 20260506224833 | 87 | 294 | 5.0 | 9.0 | 0.00 | 0.00 | 0.00 | 72 | 1010.0 |
| 20260506223833 | 87 | 296 | 2.0 | 4.0 | 0.00 | 0.00 | 0.00 | 73 | 1009.7 |
| 20260506222832 | 87 | 300 | 0.0 | 0.0 | 0.00 | 0.00 | 0.00 | 73 | 1009.6 |
| 20260506221832 | 86 | 300 | 0.0 | 0.0 | 0.00 | 0.00 | 0.00 | 72 | 1009.4 |
| 20260506220833 | 86 | 181 | 0.0 | 0.0 | 0.00 | 0.00 | 0.00 | 71 | 1009.5 |
| 20260506215832 | 86 | 181 | 0.0 | 0.0 | 0.00 | 0.00 | 0.00 | 72 | 1009.4 |
| 20260506214832 | 86 | 181 | 0.0 | 0.0 | 0.00 | 0.00 | 0.00 | 72 | 1009.4 |
| 20260506213832 | 87 | 181 | 0.0 | 0.0 | 0.00 | 0.00 | 0.00 | 71 | 1009.5 |
| 20260506212832 | 87 | 181 | 0.0 | 0.0 | 0.00 | 0.00 | 0.00 | 70 | 1009.7 |
| 20260506211832 | 88 | 181 | 0.0 | 0.0 | 0.00 | 0.00 | 0.00 | 70 | 1009.6 |
| 20260506210832 | 88 | 181 | 0.0 | 0.0 | 0.00 | 0.00 | 0.00 | 70 | 1009.7 |
| 20260506205832 | 88 | 181 | 0.0 | 1.0 | 0.00 | 0.00 | 0.00 | 71 | 1009.7 |
| 20260506204832 | 87 | 200 | 0.0 | 1.0 | 0.00 | 0.00 | 0.00 | 71 | 1009.8 |
| 20260506203832 | 87 | 200 | 0.0 | 3.0 | 0.00 | 0.00 | 0.00 | 73 | 1009.9 |
| 20260506202832 | 86 | 155 | 0.0 | 0.0 | 0.00 | 0.00 | 0.00 | 75 | 1009.8 |
| 20260506201831 | 85 | 201 | 0.0 | 3.0 | 0.00 | 0.00 | 0.00 | 75 | 1010.2 |
| 20260506200831 | 85 | 94 | 3.0 | 6.0 | 0.00 | 0.00 | 0.00 | 75 | 1010.2 |
| 20260506195832 | 85 | 108 | 1.0 | 4.0 | 0.00 | 0.00 | 0.00 | 76 | 1010.4 |
| 20260506194831 | 84 | 140 | 1.0 | 6.0 | 0.00 | 0.00 | 0.00 | 76 | 1010.5 |
| 20260506193831 | 85 | 69 | 3.0 | 4.0 | 0.00 | 0.00 | 0.00 | 75 | 1010.5 |
| 20260506192831 | 85 | 123 | 1.0 | 3.0 | 0.00 | 0.00 | 0.00 | 74 | 1010.6 |
| 20260506191831 | 85 | 114 | 0.0 | 4.0 | 0.00 | 0.00 | 0.00 | 74 | 1010.5 |
| 20260506190831 | 85 | 104 | 2.0 | 7.0 | 0.00 | 0.00 | 0.00 | 76 | 1010.5 |
| 20260506185831 | 85 | 128 | 1.0 | 7.0 | 0.00 | 0.00 | 0.00 | 77 | 1010.6 |
| 20260506184831 | 83 | 97 | 0.0 | 7.0 | 0.00 | 0.00 | 0.00 | 78 | 1010.6 |
| 20260506183831 | 83 | 197 | 2.0 | 4.0 | 0.00 | 0.00 | 0.00 | 78 | 1010.7 |
| 20260506182831 | 83 | 134 | 2.0 | 6.0 | 0.00 | 0.00 | 0.00 | 78 | 1010.8 |
| 20260506181830 | 83 | 153 | 0.0 | 0.0 | 0.00 | 0.00 | 0.00 | 79 | 1011.0 |
| 20260506180831 | 82 | 96 | 0.0 | 0.0 | 0.00 | 0.00 | 0.00 | 79 | 1011.3 |
| 20260506175830 | 82 | 93 | 0.0 | 3.0 | 0.00 | 0.00 | 0.00 | 78 | 1011.6 |
| 20260506174830 | 82 | 203 | 0.0 | 3.0 | 0.00 | 0.00 | 0.00 | 78 | 1011.9 |
| 20260506173830 | 82 | 208 | 0.0 | 0.0 | 0.00 | 0.00 | 0.00 | 78 | 1012.1 |
| 20260506172830 | 83 | 208 | 0.0 | 0.0 | 0.00 | 0.00 | 0.00 | 79 | 1012.3 |
| 20260506171830 | 83 | 208 | 0.0 | 0.0 | 0.00 | 0.00 | 0.00 | 79 | 1012.2 |
| 20260506170830 | 82 | 208 | 0.0 | 0.0 | 0.00 | 0.00 | 0.00 | 79 | 1012.2 |
| 20260506165830 | 82 | 123 | 0.0 | 0.0 | 0.00 | 0.00 | 0.00 | 80 | 1012.2 |
| 20260506164830 | 82 | 142 | 0.0 | 4.0 | 0.00 | 0.00 | 0.00 | 79 | 1012.3 |
| 20260506163830 | 82 | 220 | 1.0 | 4.0 | 0.00 | 0.00 | 0.00 | 79 | 1012.3 |
| 20260506162829 | 82 | 99 | 3.0 | 6.0 | 0.00 | 0.00 | 0.00 | 80 | 1012.0 |
| 20260506161829 | 82 | 170 | 2.0 | 5.0 | 0.00 | 0.00 | 0.00 | 80 | 1011.7 |
| 20260506160829 | 81 | 97 | 0.0 | 6.0 | 0.00 | 0.00 | 0.00 | 81 | 1011.5 |
| 20260506155829 | 81 | 119 | 1.0 | 3.0 | 0.00 | 0.00 | 0.00 | 82 | 1011.4 |
| 20260506154829 | 81 | 103 | 0.0 | 6.0 | 0.00 | 0.00 | 0.00 | 83 | 1011.3 |
| 20260506153829 | 80 | 95 | 0.0 | 4.0 | 0.00 | 0.00 | 0.00 | 83 | 1011.3 |
| 20260506152829 | 80 | 165 | 0.0 | 0.0 | 0.00 | 0.00 | 0.00 | 84 | 1011.3 |
| 20260506151829 | 79 | 165 | 0.0 | 0.0 | 0.00 | 0.00 | 0.00 | 84 | 1011.3 |
| 20260506150829 | 79 | 165 | 0.0 | 0.0 | 0.00 | 0.00 | 0.00 | 84 | 1011.6 |
| 20260506145829 | 79 | 165 | 0.0 | 0.0 | 0.00 | 0.00 | 0.00 | 85 | 1011.5 |
| 20260506144828 | 79 | 165 | 0.0 | 4.0 | 0.00 | 0.00 | 0.00 | 85 | 1011.2 |
| 20260506143828 | 78 | 106 | 2.0 | 3.0 | 0.00 | 0.00 | 0.00 | 85 | 1011.1 |
| 20260506142829 | 78 | 84 | 0.0 | 3.0 | 0.00 | 0.00 | 0.00 | 85 | 1010.9 |
| 20260506141828 | 78 | 82 | 0.0 | 4.0 | 0.00 | 0.00 | 0.00 | 86 | 1010.9 |
| 20260506140828 | 78 | 179 | 0.0 | 5.0 | 0.00 | 0.00 | 0.00 | 86 | 1010.9 |
| 20260506135828 | 78 | 172 | 2.0 | 6.0 | 0.00 | 0.00 | 0.00 | 86 | 1011.0 |
| 20260506134828 | 77 | 128 | 4.0 | 4.0 | 0.00 | 0.00 | 0.00 | 86 | 1011.0 |
| 20260506133828 | 77 | 161 | 2.0 | 3.0 | 0.00 | 0.00 | 0.00 | 86 | 1011.1 |
| 20260506132828 | 77 | 123 | 0.0 | 2.0 | 0.00 | 0.00 | 0.00 | 86 | 1011.1 |
| 20260506131828 | 77 | 88 | 0.0 | 4.0 | 0.00 | 0.00 | 0.00 | 86 | 1011.1 |
| 20260506130828 | 77 | 119 | 2.0 | 4.0 | 0.00 | 0.00 | 0.00 | 86 | 1011.0 |
| 20260506125827 | 77 | 215 | 0.0 | 2.0 | 0.00 | 0.00 | 0.00 | 86 | 1011.0 |
| 20260506124827 | 77 | 147 | 1.0 | 4.0 | 0.00 | 0.00 | 0.00 | 86 | 1010.9 |
| 20260506123827 | 77 | 144 | 0.0 | 3.0 | 0.00 | 0.00 | 0.00 | 85 | 1010.8 |
| 20260506122828 | 77 | 159 | 0.0 | 3.0 | 0.00 | 0.00 | 0.00 | 85 | 1010.8 |
| 20260506121827 | 77 | 134 | 0.0 | 3.0 | 0.00 | 0.00 | 0.00 | 85 | 1010.6 |
| 20260506120827 | 77 | 146 | 0.0 | 2.0 | 0.00 | 0.00 | 0.00 | 85 | 1010.6 |
| 20260506115827 | 77 | 153 | 2.0 | 4.0 | 0.00 | 0.00 | 0.00 | 85 | 1010.6 |
| 20260506114827 | 77 | 140 | 2.0 | 2.0 | 0.00 | 0.00 | 0.00 | 85 | 1010.4 |
| 20260506113827 | 77 | 130 | 1.0 | 4.0 | 0.00 | 0.00 | 0.00 | 85 | 1010.4 |
| 20260506112827 | 77 | 209 | 0.0 | 2.0 | 0.00 | 0.00 | 0.00 | 85 | 1010.4 |
| 20260506111827 | 77 | 146 | 1.0 | 4.0 | 0.00 | 0.00 | 0.00 | 85 | 1010.3 |
| 20260506110827 | 77 | 188 | 0.0 | 1.0 | 0.00 | 0.00 | 0.00 | 85 | 1010.3 |
| 20260506105827 | 77 | 169 | 0.0 | 3.0 | 0.00 | 0.00 | 0.00 | 85 | 1010.2 |
| 20260506104827 | 77 | 160 | 0.0 | 7.0 | 0.00 | 0.00 | 0.00 | 85 | 1010.1 |
| 20260506103827 | 77 | 171 | 2.0 | 8.0 | 0.00 | 0.00 | 0.00 | 85 | 1009.8 |
| 20260506102826 | 77 | 103 | 2.0 | 8.0 | 0.00 | 0.00 | 0.00 | 85 | 1009.7 |
| 20260506101826 | 77 | 213 | 1.0 | 3.0 | 0.00 | 0.00 | 0.00 | 85 | 1009.8 |
| 20260506100826 | 77 | 148 | 1.0 | 2.0 | 0.00 | 0.00 | 0.00 | 85 | 1009.7 |
| 20260506095826 | 77 | 109 | 0.0 | 3.0 | 0.00 | 0.00 | 0.00 | 85 | 1009.7 |
| 20260506094827 | 77 | 129 | 1.0 | 6.0 | 0.00 | 0.00 | 0.00 | 85 | 1009.7 |
| 20260506093827 | 77 | 119 | 4.0 | 4.0 | 0.00 | 0.00 | 0.00 | 85 | 1009.5 |
| 20260506092826 | 77 | 154 | 1.0 | 6.0 | 0.00 | 0.00 | 0.00 | 85 | 1009.4 |
| 20260506091826 | 77 | 115 | 0.0 | 4.0 | 0.00 | 0.00 | 0.00 | 85 | 1009.3 |
| 20260506090826 | 77 | 115 | 0.0 | 5.0 | 0.00 | 0.00 | 0.00 | 85 | 1009.3 |
| 20260506085826 | 77 | 173 | 2.0 | 5.0 | 0.00 | 0.00 | 0.00 | 85 | 1009.2 |
| 20260506084826 | 77 | 145 | 3.0 | 7.0 | 0.00 | 0.00 | 0.00 | 84 | 1009.3 |
| 20260506083826 | 77 | 117 | 1.0 | 6.0 | 0.00 | 0.00 | 0.00 | 84 | 1009.2 |
| 20260506082826 | 77 | 153 | 0.0 | 5.0 | 0.00 | 0.00 | 0.00 | 84 | 1009.3 |
| 20260506081826 | 77 | 118 | 3.0 | 7.0 | 0.00 | 0.00 | 0.00 | 84 | 1009.3 |
| 20260506080826 | 77 | 173 | 2.0 | 11.0 | 0.00 | 0.00 | 0.00 | 84 | 1009.2 |
| 20260506072826 | 78 | 134 | 4.0 | 10.0 | 0.00 | 0.00 | 0.00 | 83 | 1009.7 |
| 20260506071825 | 78 | 143 | 2.0 | 6.0 | 0.00 | 0.00 | 0.00 | 83 | 1009.7 |
| 20260506070825 | 78 | 110 | 0.0 | 8.0 | 0.00 | 0.00 | 0.00 | 83 | 1009.9 |
| 20260506061825 | 79 | 178 | 1.0 | 6.0 | 0.00 | 0.00 | 0.00 | 82 | 1010.0 |
| 20260506060825 | 79 | 144 | 4.0 | 6.0 | 0.00 | 0.00 | 0.00 | 81 | 1010.0 |
| 20260506050824 | 79 | 163 | 1.0 | 6.0 | 0.00 | 0.00 | 0.00 | 81 | 1010.2 |
| 20260506044824 | 79 | 223 | 1.0 | 5.0 | 0.00 | 0.00 | 0.00 | 80 | 1010.2 |
| 20260506043824 | 79 | 171 | 2.0 | 3.0 | 0.00 | 0.00 | 0.00 | 80 | 1010.0 |
| 20260506042834 | 79 | 94 | 3.0 | 12.0 | 0.00 | 0.00 | 0.00 | 80 | 1009.9 |
| 20260506041834 | 79 | 123 | 2.0 | 12.0 | 0.00 | 0.00 | 0.00 | 79 | 1009.5 |
| 20260506040834 | 79 | 155 | 3.0 | 9.0 | 0.00 | 0.00 | 0.00 | 79 | 1009.5 |
| 20260506035835 | 80 | 138 | 5.0 | 7.0 | 0.00 | 0.00 | 0.00 | 79 | 1009.7 |
| 20260506034834 | 80 | 98 | 3.0 | 11.0 | 0.00 | 0.00 | 0.00 | 78 | 1009.7 |
| 20260506033834 | 80 | 120 | 4.0 | 10.0 | 0.00 | 0.00 | 0.00 | 78 | 1009.5 |
| 20260506032834 | 80 | 119 | 3.0 | 10.0 | 0.00 | 0.00 | 0.00 | 77 | 1009.5 |
| 20260506031834 | 80 | 121 | 3.0 | 7.0 | 0.00 | 0.00 | 0.00 | 77 | 1009.5 |
| 20260506030834 | 81 | 200 | 2.0 | 7.0 | 0.00 | 0.00 | 0.00 | 77 | 1009.4 |
| 20260506025834 | 81 | 130 | 0.0 | 5.0 | 0.00 | 0.00 | 0.00 | 76 | 1009.4 |
| 20260506024834 | 81 | 153 | 1.0 | 3.0 | 0.00 | 0.00 | 0.00 | 76 | 1009.4 |
| 20260506023834 | 81 | 142 | 0.0 | 4.0 | 0.00 | 0.00 | 0.00 | 76 | 1009.3 |
| 20260506022833 | 81 | 98 | 2.0 | 4.0 | 0.00 | 0.00 | 0.00 | 76 | 1009.0 |
| 20260506021833 | 81 | 135 | 0.0 | 6.0 | 0.00 | 0.00 | 0.00 | 75 | 1008.9 |
| 20260506020833 | 82 | 153 | 1.0 | 5.0 | 0.00 | 0.00 | 0.00 | 75 | 1008.7 |
| 20260506015833 | 82 | 120 | 1.0 | 4.0 | 0.00 | 0.00 | 0.00 | 75 | 1008.6 |
| 20260506014833 | 82 | 146 | 1.0 | 4.0 | 0.00 | 0.00 | 0.00 | 74 | 1008.5 |
| 20260506013833 | 82 | 155 | 0.0 | 3.0 | 0.00 | 0.00 | 0.00 | 74 | 1008.2 |
| 20260506012833 | 82 | 158 | 1.0 | 5.0 | 0.00 | 0.00 | 0.00 | 74 | 1008.0 |
| 20260506011833 | 82 | 134 | 4.0 | 7.0 | 0.00 | 0.00 | 0.00 | 73 | 1008.0 |
| 20260506010833 | 82 | 177 | 2.0 | 7.0 | 0.00 | 0.00 | 0.00 | 73 | 1007.8 |
| 20260506005833 | 83 | 117 | 0.0 | 6.0 | 0.00 | 0.00 | 0.00 | 72 | 1007.8 |
| 20260506004833 | 83 | 188 | 0.0 | 5.0 | 0.00 | 0.00 | 0.00 | 72 | 1007.6 |
| 20260506003903 | 83 | 196 | 2.0 | 5.0 | 0.00 | 0.00 | 0.00 | 72 | 1007.6 |
| 20260506002833 | 84 | 160 | 0.0 | 10.0 | 0.00 | 0.00 | 0.00 | 71 | 1007.5 |
| 20260506001832 | 84 | 172 | 2.0 | 10.0 | 0.00 | 0.00 | 0.00 | 71 | 1007.6 |
| 20260506000832 | 84 | 170 | 5.0 | 8.0 | 0.00 | 0.00 | 0.00 | 70 | 1007.5 |
| 20260505235832 | 85 | 85 | 1.0 | 7.0 | 0.00 | 0.00 | 0.00 | 70 | 1007.5 |
| 20260505234832 | 85 | 129 | 4.0 | 9.0 | 0.00 | 0.00 | 0.00 | 69 | 1007.4 |
| 20260505233832 | 85 | 171 | 2.0 | 8.0 | 0.00 | 0.00 | 0.00 | 69 | 1007.5 |
| 20260505232832 | 86 | 121 | 3.0 | 10.0 | 0.00 | 0.00 | 0.00 | 68 | 1007.5 |